Regional Weather Roundup
Issued by NWS

Home | Current Version | Previous Version | Text Only | Print | Product List | Glossary Off
Versions: 1 2 3 4 5 6 7 8 9 10 11 12 13 14 15 16 17 18 19 20 21 22 23 24 25 26 27 28 29 30 31 32 33 34 35 36 37 38 39 40 41 42 43 44 45 46 47 48 49 50

000
ASUS43 KLSX 212257
RWRMO

WEATHER SUMMARY FOR MISSOURI
NATIONAL WEATHER SERVICE SPRINGFIELD MO
500 PM CST WED FEB 21 2018

NOTE: "FAIR" INDICATES FEW OR NO CLOUDS BELOW 12,000 FEET WITH NO
       SIGNIFICANT WEATHER AND/OR OBSTRUCTIONS TO VISIBILITY.
       CURRENT SKY AND/OR WEATHER CONDITIONS ARE NOT AVAILABLE FOR
       CHILLICOTHE AND FARMINGTON.

MOZ001>031-035>038-043-044-053-054-220000-
...NORTHERN AND WESTERN MISSOURI...

CITY           SKY/WX    TMP DP  RH WIND       PRES   REMARKS
KANSAS CTY INT CLOUDY    27  22  81 NE13      30.51R WCI  16
LEE`S SUMMIT   PTSUNNY   26  23  88 NE10      30.51R WCI  16
ST JOSEPH      CLOUDY    28  22  78 NE9       30.54R WCI  19
CHILLICOTHE      N/A     28  21  75 NE10      30.56S WCI  19

$$
MOZ066>068-077>081-088>096-101>105-220000-
...SOUTHWEST MISSOURI...

CITY           SKY/WX    TMP DP  RH WIND       PRES   REMARKS
SPRINGFIELD    CLOUDY    28  26  92 NE12      30.41R WCI  18
JOPLIN         CLOUDY    28  26  92 NE9       30.46R WCI  19
BRANSON        FRZ RAIN  30  30 100 N9        30.42R VSB 1/2 WCI  22

$$
MOZ032>034-039>042-045>050-055>058-069>072-220000-
...CENTRAL MISSOURI...

CITY           SKY/WX    TMP DP  RH WIND       PRES   REMARKS
COLUMBIA       NOT AVBL
JEFFERSON CITY CLOUDY    29  24  82 NE5       30.55R WCI  24
ROLLA          CLOUDY    27  25  92 N9        30.50R WCI  18
SEDALIA        CLOUDY    31  25  78 NE8       30.54R WCI  23
WARRENSBURG    FAIR      28  25  86 NE5       30.53R WCI  23

$$
MOZ051-052-059>065-220000-
...EAST CENTRAL MISSOURI...

CITY           SKY/WX    TMP DP  RH WIND       PRES   REMARKS
ST LOUIS INTL  FRZ DRZL  30  28  92 N8        30.52R FOG     WCI  22

$$
MOZ072>076-082>087-097>100-106>115-220000-
...SOUTH CENTRAL AND SOUTHEAST MISSOURI...

CITY           SKY/WX    TMP DP  RH WIND       PRES   REMARKS
CAPE GIRARDEAU LGT RAIN  35  32  88 NE12      30.42F FOG     WCI  27
POPLAR BLUFF   LGT RAIN  35  33  92 NE14      30.39S WCI  26
WEST PLAINS    CLOUDY    30  29  96 N10       30.39R FOG     WCI  21

$$



USA.gov is the U.S. government's official web portal to all federal, state and local government web resources and services.